Location: Kerguer�zec
(48.4509°N, 4.7600°W)
Time: 07:20:43
(UTC+00:00)

Cosmos 1980 Rocket - Pass Details

Date: 09 April 2020
Orbit: 829 x 850 km, 71.0° (Epoch: 24 May)

Event Time Altitude Azimuth Distance (km) Brightness Sun altitude
Rises 23:19:23 0° 325° (NW) 3,390 6.4 -31.9°
Reaches altitude 10° 23:22:00 10° 317° (NW) 2,455 5.3 -32.1°
Enters shadow 23:25:49 31° 279° (W) 1,432 3.5 -32.2°
